Location: Unspecified
(40.7945°N, 0.0000°E)
Time: 15:38:02
(UTC+00:00)

Courier 1B - Pass Details

Date: 27 January 2021
Orbit: 962 x 1209 km, 28.3° (Epoch: 07 March)

Event Time Altitude Azimuth Distance (km) Brightness Sun altitude
Rises 21:12:10 0° 220° (SW) 3,885 10.9 -45.3°
Enters shadow 21:13:19 - 216° (SW) 3,552 10.6 -45.5°
Reaches altitude 10° 21:15:54 10° 203° (SSW) 2,879 - -46.0°
Maximum altitude 21:20:25 18° 162° (SSE) 2,273 - -46.8°
Drops below altitude 10° 21:24:47 10° 121° (ESE) 2,773 - -47.6°
Sets 21:28:17 0° 104° (ESE) 3,689 - -48.2°
